Location: *
(24.1434°N, 56.8729°E)
Time: 05:40:49
(UTC+00:00)

Nadezhda 4 Rocket - Pass Details

Date: 09 April 2020
Orbit: 949 x 993 km, 82.9° (Epoch: 27 May)

Event Time Altitude Azimuth Distance (km) Brightness Sun altitude
Exits shadow 23:49:14 64° 309° (NW) 1,087 4.0 -28.4°
Drops below altitude 10° 23:54:57 10° 358° (N) 2,756 6.6 -27.2°
Sets 23:57:31 0° 1° (N) 3,707 7.3 -26.7°
